Temp
55 55 56 56 56 57 57 57 57 58 58 58 58 57 58 58 57 56 58 58 57 53 57 60 63 59 60 59 55 60 59 61 60 58 60 63 62 62 62 63 63 63 60 60 57 56 54 70 68 63 69 69 68 67
55 55 55 55 56 56 57 57 57 57 57 57 57 57 57 57 57 55 51 59 60 52 56 62 64 67 65 64 60 61 56 56 61 57 61 60 60 61 62 60 62 62 67 66 64 66 67 71 71 72 71 68 67 67
54 54 55 55 56 56 56 56 56 56 56 56 56 57 57 57 57 55 52 56 57 52 55 56 58 67 69 66 70 55 62 62 61 64 59 59 58 63 60 62 63 63 63 67 63 66 67 70 71 71 71 71 70 71
54 54 55 55 55 56 56 56 56 55 56 56 56 57 56 56 56 56 53 56 56 54 45 56 67 62 71 70 66 65 66 65 60 61 59 58 59 63 63 66 69 68 64 64 66 67 68 69 72 73 71 71 71 70
54 54 55 55 55 55 55 55 55 55 56 56 56 56 56 56 55 56 55 55 58 54 47 51 61 63 67 65 64 63 63 62 58 55 57 57 62 62 61 65 67 68 67 69 70 73 74 73 74 73 71 70 71 70
53 54 54 55 55 55 55 55 55 55 55 55 55 56 56 55 54 55 51 55 54 53 46 45 61 60 64 63 60 61 63 62 58 57 58 60 63 62 64 64 69 71 71 74 75 74 76 75 76 76 74 72 73 73
53 54 54 55 54 54 54 55 55 54 54 55 55 54 55 54 53 51 53 53 54 53 47 48 50 61 64 59 60 60 62 61 61 60 60 64 64 65 62 65 72 70 71 70 72 74 72 74 74 75 76 74 70 74
53 54 54 55 54 54 54 54 55 54 54 54 54 54 54 53 53 51 59 54 55 52 51 45 47 54 65 52 55 61 57 59 58 61 62 61 62 62 61 69 69 71 71 70 72 76 77 79 76 74 76 74 72 72
53 54 54 54 53 53 54 54 55 54 54 54 54 54 53 52 48 56 58 57 56 52 46 48 44 41 58 52 61 59 61 54 62 57 60 62 62 58 66 68 68 69 72 75 72 75 75 76 74 73 74 74 74 73
53 53 54 54 54 54 54 54 54 54 53 54 52 50 51 51 57 57 53 49 48 48 48 45 53 45 53 50 52 58 58 58 53 59 59 64 62 65 67 68 72 73 73 74 71 70 72 73 73 73 74 75 76 75
53 53 54 55 55 54 54 54 54 54 53 52 50 49 56 58 54 51 47 45 48 45 49 51 51 47 53 45 50 55 55 58 54 56 60 58 60 66 71 71 71 72 71 74 78 82 80 81 76 76 75 76 75 75
53 53 54 54 55 55 55 54 54 52 51 49 49 52 53 52 48 45 46 48 45 47 51 47 49 51 51 51 51 55 53 56 51 58 59 54 62 65 67 71 72 71 71 73 75 76 77 78 78 78 78 76 76 76
53 53 53 54 54 55 54 54 53 54 53 54 48 47 48 48 39 42 42 44 44 49 51 50 49 54 52 52 50 51 49 51 57 53 54 59 57 63 64 66 67 70 70 73 74 75 75 75 74 74 75 76 76 74
52 53 53 54 54 54 54 54 54 54 52 47 46 37 42 42 44 48 48 51 55 53 51 50 50 52 55 50 50 46 50 51 50 50 53 56 57 59 63 66 66 70 69 71 73 73 74 73 74 73 74 75 74 72
52 53 53 53 54 54 54 54 54 56 48 45 46 39 45 52 50 52 56 54 55 55 51 51 52 51 51 51 52 50 47 45 50 52 57 56 57 59 62 65 67 67 69 70 71 72 73 72 71 72 73 72 72 72
53 53 53 53 54 54 54 53 54 53 49 46 45 44 50 49 52 55 55 54 53 54 54 51 50 49 50 51 50 50 50 49 55 58 57 58 59 59 61 63 65 67 69 69 70 70 71 71 71 71 71 71 71 71
52 50 53 53 53 53 53 52 50 47 48 47 46 51 50 50 49 51 54 54 55 53 51 52 49 45 54 50 49 54 53 56 57 54 56 57 60 60 62 64 65 66 66 67 68 68 69 69 70 70 70 70 71 71
49 52 54 53 53 52 51 50 48 48 45 49 46 53 52 55 56 56 56 57 56 53 52 50 56 50 47 45 49 56 56 59 57 58 58 58 60 61 63 62 63 65 67 67 67 68 69 69 69 71 69 70 70 70
50 51 53 53 54 51 47 49 49 44 49 52 53 53 53 56 58 59 60 60 60 60 57 55 51 51 49 51 51 54 56 57 57 58 58 60 60 60 61 63 64 65 65 65 66 68 67 67 69 70 71 71 71 74
52 52 52 53 53 48 47 48 51 47 47 52 53 52 53 56 57 58 59 58 57 55 52 53 56 59 58 56 56 57 57 55 57 58 59 61 61 60 61 62 63 64 67 66 69 56 69 71 73 70 71 70 71 73
52 53 53 54 51 50 48 48 47 49 51 50 53 53 54 54 54 55 55 55 54 54 54 58 60 62 60 60 61 61 58 59 58 60 60 60 61 60 63 62 62 66 64 66 67 68 65 69 69 69 70 71 72 73
51 54 51 52 49 50 47 53 50 52 49 52 51 52 51 50 51 52 55 51 53 55 56 57 58 60 60 58 61 60 62 62 62 62 52 55 63 63 63 64 62 66 66 65 67 65 68 67 66 68 69 69 65 68
52 52 50 49 46 44 45 53 47 51 47 50 51 48 49 49 50 53 48 53 53 56 58 58 58 58 57 60 60 61 61 62 65 67 65 66 66 64 63 67 66 65 67 67 64 64 66 53 63 65 66 65 60 60
51 49 46 45 45 42 50 48 50 49 51 49 46 45 47 49 51 48 45 48 53 57 55 56 58 58 58 57 60 63 64 65 65 65 65 65 66 64 65 67 67 67 64 63 60 63 64 63 54 64 64 62 60 62
42 42 42 36 45 44 44 47 48 48 43 45 44 45 47 50 46 46 46 50 50 52 54 54 55 56 53 55 59 62 62 64 64 63 62 64 63 62 63 63 63 63 61 57 57 59 62 64 65 64 63 63 61 60
36 45 39 46 46 44 47 44 45 45 46 45 47 49 49 49 46 45 48 50 52 53 54 54 55 55 55 56 56 58 58 61 62 62 57 58 65 64 62 60 60 59 60 60 59 58 60 62 62 62 62 57 48 61
38 42 47 50 48 48 49 51 50 46 45 46 47 48 48 45 45 48 52 53 53 56 57 58 58 58 58 59 61 61 63 63 63 63 62 61 58 58 62 60 57 60 64 65 63 62 60 58 59 60 60 61 61 63
47 46 42 46 47 52 48 49 47 46 47 50 49 46 44 45 46 52 53 56 56 58 60 62 61 64 62 61 61 64 63 64 64 65 64 64 57 60 63 63 61 47 63 65 64 61 59 58 56 56 55 54 55 57
45 49 47 44 47 49 48 46 47 48 53 49 46 46 49 53 54 55 59 61 63 62 63 64 64 66 65 65 64 63 63 67 65 61 59 55 58 60 63 65 66 68 68 67 46 56 63 64 65 62 58 56 55 55
46 50 46 47 47 48 49 50 52 55 52 53 53 53 55 57 60 63 63 63 62 65 66 67 69 70 68 69 67 66 64 64 67 67 64 63 65 67 68 69 69 69 70 69 68 65 48 61 57 66 65 65 63 61
50 48 49 50 49 53 55 55 55 53 58 53 53 52 56 58 62 63 63 66 67 68 69 68 69 70 71 71 70 69 66 67 67 68 70 70 69 69 70 70 71 71 71 71 70 70 68 68 68 67 66 65 64 63
51 49 50 48 50 55 55 53 51 51 54 54 54 57 59 60 62 67 69 70 72 70 58 67 70 68 69 70 71 70 56 69 69 69 69 70 70 70 72 73 73 72 72 72 72 72 70 69 69 69 68 66 66 66
51 49 49 50 50 50 51 51 53 52 53 56 56 57 60 60 62 68 69 68 70 72 70 68 68 67 67 69 69 68 61 67 55 44 45 46 46 55 70 74 73 72 72 73 73 73 70 69 68 67 67 66 65 65
MSLP
1020.13 1019.88 1019.63 1019.36 1018.94 1018.43 1017.91 1017.42 1017.18 1016.84 1016.65 1016.66 1016.95 1017.20 1017.31 1017.40 1017.50 1017.55 1017.18 1017.35 1017.03 1016.18 1014.58 1013.83 1013.26 1012.75 1012.50 1012.39 1011.91 1011.33 1010.83 1010.26 1009.42 1008.68 1007.28 1006.30 1005.64 1005.71 1005.86 1006.36 1006.64 1006.72 1007.22 1007.60 1007.98 1007.48 1007.05 1007.08 1007.68 1007.59 1007.49 1007.72 1008.03 1008.31
1019.83 1019.56 1019.23 1018.91 1018.57 1018.06 1017.54 1017.11 1016.98 1016.88 1016.78 1016.93 1017.07 1017.19 1017.29 1017.39 1017.45 1017.46 1017.41 1017.12 1017.22 1016.87 1014.77 1013.85 1013.18 1012.84 1012.49 1012.29 1012.34 1011.73 1011.50 1011.34 1010.52 1009.64 1008.34 1007.52 1006.19 1005.88 1005.77 1006.07 1006.73 1006.80 1006.52 1006.55 1007.01 1006.55 1006.75 1007.03 1007.16 1007.44 1007.77 1007.94 1008.25 1008.59
1019.50 1019.26 1018.94 1018.61 1018.19 1017.74 1017.46 1017.30 1017.15 1017.05 1017.04 1017.10 1017.19 1017.28 1017.27 1017.29 1017.31 1017.34 1017.48 1017.41 1017.14 1016.41 1014.28 1013.18 1011.49 1011.09 1011.20 1011.31 1011.44 1011.88 1011.33 1011.18 1010.88 1010.70 1009.65 1008.06 1006.73 1005.50 1005.48 1005.71 1006.06 1006.53 1006.75 1006.40 1006.70 1006.46 1006.59 1006.87 1007.31 1007.64 1007.99 1008.08 1008.44 1008.84
1019.07 1018.89 1018.63 1018.27 1017.82 1017.47 1017.35 1017.26 1017.31 1017.20 1017.11 1017.15 1017.10 1017.19 1017.22 1017.24 1017.25 1017.22 1017.38 1017.45 1017.18 1016.52 1015.18 1011.92 1010.89 1010.60 1010.02 1010.07 1010.55 1010.82 1010.95 1011.29 1011.44 1011.06 1010.01 1008.53 1006.75 1005.59 1005.39 1004.99 1005.30 1005.92 1006.22 1005.95 1005.85 1005.99 1006.42 1006.72 1006.96 1007.26 1007.95 1008.31 1008.62 1009.11
1018.71 1018.47 1018.17 1017.90 1017.54 1017.30 1017.30 1017.28 1017.24 1017.24 1017.16 1017.16 1017.16 1017.15 1017.14 1017.11 1017.12 1017.03 1017.02 1016.99 1016.90 1016.79 1015.34 1012.51 1010.90 1009.66 1009.36 1009.56 1009.76 1010.34 1010.86 1011.07 1011.39 1011.20 1009.94 1008.15 1006.83 1006.42 1005.77 1005.28 1004.85 1004.98 1004.87 1004.71 1004.42 1004.70 1005.09 1005.61 1006.22 1007.12 1007.68 1008.14 1008.51 1008.85
1018.39 1018.15 1017.84 1017.49 1017.14 1017.13 1017.21 1017.22 1017.16 1017.15 1017.14 1017.15 1017.13 1017.09 1017.01 1016.99 1016.93 1016.84 1016.54 1016.54 1016.67 1016.94 1016.14 1013.40 1010.73 1009.57 1009.14 1009.01 1009.22 1009.82 1010.31 1010.77 1011.15 1010.51 1009.12 1007.83 1006.90 1006.40 1005.28 1004.52 1003.83 1003.77 1004.04 1003.94 1004.10 1004.58 1004.92 1005.25 1005.87 1006.71 1007.21 1007.96 1008.47 1008.75
1018.01 1017.77 1017.52 1017.27 1017.06 1017.01 1017.03 1017.11 1017.07 1017.09 1017.05 1017.02 1016.97 1016.95 1016.81 1016.86 1016.91 1016.62 1016.34 1016.38 1016.45 1016.79 1015.78 1013.58 1011.32 1009.74 1009.25 1009.46 1009.52 1009.80 1010.15 1010.18 1010.14 1009.77 1008.55 1007.21 1006.72 1005.96 1005.41 1003.83 1003.07 1003.38 1003.84 1004.23 1004.41 1004.63 1005.14 1005.30 1005.60 1006.44 1007.02 1007.73 1008.54 1008.94
1017.70 1017.47 1017.21 1017.03 1016.93 1016.99 1016.97 1016.93 1016.87 1016.88 1016.84 1016.85 1016.78 1016.73 1016.65 1016.66 1016.57 1016.19 1015.26 1015.44 1016.35 1016.33 1015.46 1013.96 1011.84 1010.24 1009.46 1009.36 1009.32 1009.41 1009.45 1009.62 1009.45 1008.54 1007.59 1006.68 1006.33 1005.54 1004.97 1003.14 1003.18 1003.36 1003.80 1004.18 1004.36 1004.34 1004.45 1004.74 1005.46 1006.23 1006.82 1007.66 1008.25 1008.68
1017.40 1017.11 1016.87 1016.78 1016.87 1017.00 1016.90 1016.79 1016.72 1016.73 1016.71 1016.58 1016.50 1016.44 1016.50 1016.35 1016.04 1015.28 1015.04 1015.09 1015.59 1015.93 1014.71 1013.48 1012.20 1011.48 1010.43 1009.98 1008.81 1008.63 1008.44 1008.49 1007.97 1007.56 1006.56 1006.10 1005.49 1004.88 1003.27 1002.90 1002.98 1003.16 1003.07 1002.98 1004.12 1004.43 1004.64 1004.71 1005.33 1006.01 1006.52 1007.18 1007.67 1008.27
1017.09 1016.94 1016.70 1016.59 1016.71 1016.81 1016.77 1016.77 1016.73 1016.64 1016.48 1016.37 1016.45 1016.30 1015.49 1015.35 1015.01 1015.15 1015.18 1015.23 1015.30 1014.93 1014.43 1013.24 1012.17 1011.63 1011.09 1010.34 1008.96 1008.10 1007.47 1006.88 1006.83 1006.25 1006.13 1005.36 1004.43 1003.45 1002.82 1003.16 1002.97 1002.96 1003.22 1003.34 1003.78 1004.38 1004.59 1004.74 1005.17 1005.71 1005.99 1006.40 1006.80 1007.42
1016.85 1016.64 1016.48 1016.35 1016.43 1016.53 1016.60 1016.60 1016.55 1016.39 1016.30 1016.28 1016.04 1015.71 1015.15 1014.89 1014.83 1014.71 1014.40 1014.22 1014.04 1013.71 1013.10 1012.14 1011.67 1011.34 1011.04 1010.72 1009.30 1008.05 1006.86 1006.25 1005.78 1005.78 1005.45 1004.83 1004.03 1003.25 1002.81 1002.88 1003.21 1003.27 1003.39 1003.39 1003.23 1003.11 1003.59 1003.96 1004.54 1005.14 1005.71 1006.11 1006.70 1007.20
1016.46 1016.40 1016.29 1016.22 1016.22 1016.29 1016.36 1016.43 1016.44 1016.52 1016.39 1016.45 1016.48 1015.94 1015.46 1014.75 1014.52 1014.35 1013.44 1013.01 1012.81 1012.06 1011.52 1011.18 1010.77 1010.94 1010.72 1010.42 1009.02 1007.72 1006.75 1006.24 1005.74 1005.87 1005.11 1004.43 1003.90 1003.24 1003.12 1002.96 1003.00 1003.47 1003.43 1003.43 1003.38 1003.55 1003.83 1004.10 1004.36 1004.81 1005.19 1005.62 1006.11 1006.69
1016.23 1016.15 1016.11 1016.13 1016.10 1016.14 1016.18 1016.24 1016.33 1016.38 1016.28 1016.07 1016.07 1015.49 1014.78 1014.32 1013.84 1013.25 1012.30 1011.67 1011.46 1011.08 1010.77 1010.62 1010.38 1009.90 1010.29 1010.04 1009.39 1008.51 1007.19 1006.54 1006.33 1005.68 1004.84 1004.57 1004.53 1004.26 1004.10 1003.95 1003.86 1003.88 1003.46 1003.55 1003.37 1003.63 1003.94 1004.36 1004.74 1005.00 1005.17 1005.50 1005.95 1006.53
1015.96 1015.91 1015.92 1015.90 1015.91 1015.92 1015.99 1016.11 1016.26 1016.34 1016.22 1015.82 1015.30 1014.80 1014.17 1013.27 1012.54 1011.72 1011.38 1011.06 1010.73 1010.47 1010.50 1010.37 1010.12 1009.35 1009.21 1009.42 1008.87 1008.36 1008.04 1007.46 1006.01 1005.31 1005.10 1005.39 1005.33 1005.04 1004.70 1004.25 1003.91 1003.38 1003.34 1003.24 1003.37 1003.64 1003.86 1004.45 1004.73 1005.11 1005.31 1005.51 1005.76 1006.15
1015.74 1015.73 1015.62 1015.59 1015.63 1015.75 1015.88 1016.07 1016.21 1016.13 1016.08 1015.56 1014.96 1013.90 1013.00 1012.21 1011.84 1011.27 1010.95 1010.71 1010.34 1010.25 1010.29 1010.06 1009.64 1009.41 1008.99 1008.72 1008.34 1008.12 1007.62 1006.96 1006.13 1005.61 1005.80 1006.05 1006.01 1005.62 1004.98 1004.37 1003.99 1003.66 1003.51 1003.41 1003.41 1003.55 1003.84 1004.32 1004.73 1004.84 1005.09 1005.37 1005.65 1005.89
1015.59 1015.61 1015.49 1015.47 1015.51 1015.66 1015.86 1016.08 1016.15 1016.21 1015.71 1015.18 1014.48 1013.41 1012.41 1012.01 1011.08 1010.82 1010.55 1010.24 1010.11 1009.85 1009.89 1009.82 1009.15 1008.74 1008.39 1008.18 1007.77 1007.01 1006.70 1006.09 1005.60 1005.94 1006.23 1006.34 1006.20 1006.03 1005.62 1005.01 1004.71 1004.40 1004.01 1003.90 1003.92 1003.94 1004.04 1004.26 1004.41 1004.63 1004.91 1005.10 1005.32 1005.54
1015.48 1015.42 1015.26 1015.17 1015.44 1015.68 1015.91 1016.10 1016.18 1015.79 1014.99 1014.18 1013.25 1012.68 1012.36 1011.78 1011.29 1010.68 1010.32 1010.02 1009.99 1009.91 1009.38 1009.10 1008.81 1008.72 1008.53 1008.04 1007.46 1006.76 1006.16 1005.87 1006.00 1006.30 1006.81 1007.02 1006.93 1006.48 1006.06 1005.51 1005.19 1004.98 1004.66 1004.48 1004.43 1004.45 1004.45 1004.54 1004.56 1004.63 1004.68 1004.84 1004.97 1005.19
1015.45 1015.26 1015.01 1015.30 1015.52 1015.86 1016.02 1016.03 1015.61 1014.92 1014.11 1013.18 1012.69 1011.85 1011.72 1011.21 1010.59 1010.21 1009.72 1009.67 1009.85 1009.54 1009.28 1008.86 1008.56 1008.29 1008.27 1008.05 1007.25 1006.66 1006.32 1006.54 1006.80 1006.69 1007.01 1007.13 1007.00 1006.60 1006.36 1006.12 1005.86 1005.65 1005.29 1005.10 1005.05 1005.00 1004.82 1004.72 1004.66 1004.56 1004.79 1004.92 1005.01 1004.96
1015.41 1015.41 1015.38 1015.49 1015.54 1015.59 1015.59 1015.48 1015.27 1014.28 1013.04 1012.50 1011.94 1011.60 1011.25 1010.59 1010.03 1009.73 1009.49 1009.32 1009.42 1009.40 1009.20 1008.61 1008.19 1007.73 1007.73 1007.52 1007.27 1006.73 1006.73 1006.75 1006.71 1007.03 1007.02 1006.86 1006.78 1006.77 1006.66 1006.49 1006.18 1005.91 1005.71 1005.53 1005.30 1005.17 1005.23 1005.21 1005.10 1005.05 1005.00 1005.05 1004.80 1004.63
1015.28 1015.28 1015.39 1015.46 1015.58 1015.26 1014.83 1014.61 1014.66 1013.90 1012.66 1011.88 1011.57 1011.04 1010.64 1010.05 1009.70 1009.43 1009.25 1009.21 1009.24 1009.22 1008.83 1008.10 1007.31 1007.04 1007.00 1006.91 1007.09 1006.93 1006.97 1007.13 1006.97 1006.78 1006.85 1006.92 1007.03 1007.03 1006.92 1006.75 1006.48 1006.33 1006.03 1005.89 1005.75 1005.73 1005.46 1005.18 1005.04 1005.19 1005.07 1005.14 1004.67 1004.37
1015.10 1015.10 1015.27 1015.31 1015.40 1015.23 1014.86 1014.17 1013.71 1012.96 1012.21 1011.60 1010.96 1010.69 1010.05 1009.83 1009.43 1009.19 1009.04 1009.16 1009.03 1008.50 1007.78 1007.28 1006.97 1006.77 1006.88 1006.92 1007.03 1007.04 1007.10 1007.12 1006.90 1006.78 1006.79 1006.86 1007.03 1007.18 1007.08 1007.02 1006.78 1006.50 1006.35 1006.16 1005.93 1005.73 1005.68 1005.58 1005.46 1005.35 1004.95 1004.65 1004.43 1004.28
1015.04 1015.07 1015.21 1015.28 1015.06 1014.66 1014.47 1013.77 1013.36 1012.62 1012.24 1011.09 1010.82 1010.42 1009.90 1009.52 1009.22 1009.04 1009.07 1008.97 1008.43 1007.73 1007.49 1007.11 1006.85 1006.72 1006.71 1006.64 1006.49 1006.71 1006.76 1006.82 1006.84 1006.74 1006.90 1007.06 1006.90 1006.96 1006.83 1006.81 1006.76 1006.47 1006.41 1006.44 1006.30 1006.27 1005.98 1005.89 1005.88 1005.48 1004.99 1004.75 1004.67 1004.45
1015.10 1015.06 1014.96 1014.95 1014.87 1014.41 1013.72 1013.38 1012.83 1011.92 1011.38 1010.70 1010.56 1010.12 1009.63 1009.37 1009.18 1009.30 1009.08 1008.54 1007.96 1007.40 1007.24 1007.05 1006.77 1006.64 1006.49 1006.29 1006.31 1006.35 1006.47 1006.45 1006.16 1006.02 1006.25 1006.43 1006.59 1006.73 1006.75 1006.59 1006.64 1006.56 1006.32 1006.43 1006.65 1006.52 1006.25 1006.23 1005.78 1005.52 1005.25 1005.12 1005.31 1005.12
1015.10 1014.96 1014.66 1014.44 1014.40 1013.83 1013.25 1012.51 1012.09 1011.52 1010.92 1010.56 1010.19 1009.82 1009.46 1009.09 1009.03 1008.90 1008.92 1008.47 1007.68 1007.37 1007.25 1007.02 1006.76 1006.47 1006.34 1006.20 1005.94 1005.72 1005.73 1005.85 1005.87 1005.99 1006.18 1006.28 1006.15 1006.42 1006.52 1006.47 1006.46 1006.51 1006.77 1006.82 1006.87 1006.50 1006.24 1006.04 1006.07 1005.58 1005.38 1005.33 1005.40 1005.25
1015.28 1015.04 1014.84 1014.31 1013.92 1013.50 1012.57 1011.70 1011.29 1011.09 1010.87 1010.62 1010.14 1009.50 1009.13 1008.93 1008.65 1008.54 1008.34 1007.93 1007.56 1007.48 1007.18 1006.84 1006.57 1006.48 1006.29 1006.07 1005.85 1005.67 1005.75 1005.75 1005.74 1005.89 1006.18 1006.24 1006.32 1006.42 1006.51 1006.58 1006.66 1006.88 1007.11 1007.08 1006.86 1006.57 1006.14 1005.87 1005.48 1005.34 1005.25 1005.24 1005.31 1005.49
1014.81 1014.51 1014.44 1013.55 1013.12 1012.83 1011.96 1011.37 1011.04 1010.66 1010.30 1009.85 1009.37 1009.17 1008.88 1008.62 1008.43 1008.33 1008.22 1008.13 1007.82 1007.49 1007.13 1006.97 1006.66 1006.34 1006.29 1006.22 1006.03 1005.89 1005.94 1005.98 1005.88 1005.88 1006.18 1006.23 1006.12 1006.22 1006.37 1006.65 1006.80 1007.06 1007.18 1007.08 1006.89 1006.58 1006.27 1005.99 1005.73 1005.55 1005.42 1005.55 1005.55 1005.56
1014.43 1013.92 1013.63 1013.37 1012.95 1012.44 1011.60 1010.92 1010.77 1010.56 1010.13 1009.65 1009.33 1008.95 1008.74 1008.53 1008.46 1008.36 1008.15 1007.97 1007.77 1007.42 1007.21 1006.94 1006.70 1006.40 1006.30 1006.23 1006.18 1006.16 1006.06 1006.07 1006.06 1006.18 1006.43 1006.59 1006.76 1006.73 1006.75 1006.85 1006.94 1007.26 1007.19 1006.97 1006.91 1006.82 1006.63 1006.51 1006.38 1006.19 1006.06 1006.00 1005.97 1005.90
1013.80 1013.62 1013.37 1013.05 1012.51 1011.97 1011.42 1010.82 1010.49 1010.09 1009.68 1009.61 1009.39 1009.06 1008.87 1008.71 1008.52 1008.21 1007.97 1007.87 1007.46 1007.25 1007.02 1006.81 1006.72 1006.52 1006.45 1006.51 1006.58 1006.41 1006.49 1006.53 1006.59 1006.63 1006.78 1007.04 1007.47 1007.37 1007.29 1007.44 1007.59 1007.66 1007.42 1007.33 1007.19 1007.28 1007.19 1007.21 1007.15 1007.01 1006.80 1006.74 1007.04 1007.14
1013.60 1013.23 1013.14 1012.56 1012.07 1011.60 1011.20 1010.88 1010.42 1010.04 1009.73 1009.69 1009.47 1009.09 1008.71 1008.45 1008.19 1007.77 1007.55 1007.54 1007.41 1007.12 1006.83 1006.52 1006.56 1006.53 1006.46 1006.41 1006.55 1006.64 1006.76 1006.59 1006.39 1006.43 1006.67 1007.12 1007.33 1007.65 1007.65 1007.54 1007.45 1007.33 1007.35 1007.48 1007.84 1007.58 1007.59 1007.62 1007.50 1007.52 1007.57 1007.65 1007.71 1007.81
1012.90 1012.81 1012.46 1011.93 1011.39 1010.71 1010.21 1010.14 1009.83 1009.67 1009.70 1009.55 1009.35 1009.03 1008.49 1007.93 1007.57 1007.40 1007.16 1006.99 1006.79 1006.62 1006.55 1006.41 1006.30 1006.23 1006.22 1006.09 1006.20 1006.49 1006.81 1006.83 1006.66 1006.53 1006.66 1006.93 1007.24 1007.62 1007.61 1007.55 1007.48 1007.51 1007.52 1007.46 1007.72 1008.03 1008.34 1008.08 1008.22 1007.87 1007.86 1007.96 1008.17 1008.37
1012.46 1012.37 1011.90 1011.26 1010.58 1010.07 1009.82 1009.74 1009.51 1009.55 1009.33 1009.28 1009.13 1008.91 1008.33 1007.76 1007.22 1007.10 1006.98 1006.83 1006.68 1006.49 1006.42 1006.42 1006.41 1006.44 1006.33 1006.26 1006.27 1006.32 1006.69 1007.08 1007.13 1007.21 1007.49 1007.46 1007.65 1007.77 1007.79 1007.78 1007.72 1007.63 1007.53 1007.47 1007.57 1007.64 1007.76 1007.72 1007.75 1007.86 1007.98 1008.03 1008.25 1008.33
1011.70 1011.43 1011.07 1010.68 1010.21 1009.92 1009.76 1009.59 1009.38 1009.19 1008.93 1008.69 1008.52 1008.39 1007.94 1007.54 1006.88 1006.67 1006.74 1006.64 1006.31 1006.20 1006.50 1006.45 1006.41 1006.63 1006.87 1006.93 1007.00 1007.18 1007.46 1007.48 1007.60 1007.78 1007.89 1007.85 1007.97 1008.05 1008.03 1007.98 1007.89 1007.74 1007.54 1007.46 1007.49 1007.51 1007.58 1007.62 1007.66 1007.76 1007.83 1008.00 1008.15 1008.28
1011.00 1010.84 1010.70 1010.51 1010.18 1009.84 1009.62 1009.48 1009.03 1008.79 1008.59 1008.28 1008.03 1007.82 1007.46 1007.19 1006.74 1006.64 1006.90 1006.91 1006.67 1006.45 1006.63 1006.88 1007.03 1007.16 1007.26 1007.24 1007.33 1007.55 1007.69 1007.94 1008.23 1008.27 1008.31 1008.29 1008.30 1008.26 1008.11 1007.97 1007.95 1007.84 1007.61 1007.52 1007.52 1007.63 1007.77 1007.89 1008.02 1008.20 1008.34 1008.49 1008.64 1008.75
Wind_Speed
13 14 15 16 16 16 17 14 11 10 5 3 4 3 2 2 2 1 1 4 2 3 9 8 7 7 6 5 5 5 6 2 3 5 5 3 3 5 5 4 6 8 8 4 3 4 6 7 6 5 3 2 3 2
13 14 14 15 16 16 13 8 4 3 3 3 3 3 1 1 1 2 1 0 2 4 6 5 12 15 15 13 6 4 1 5 3 4 2 3 2 4 5 5 1 5 3 3 8 2 3 8 1 1 2 3 1 4
13 13 14 14 14 12 7 5 4 3 2 2 1 1 1 1 1 2 1 2 2 4 8 6 10 12 14 20 17 5 3 5 4 2 4 3 6 3 5 4 4 4 4 3 4 4 5 7 6 3 2 0 5 7
12 13 14 14 14 7 3 3 3 2 2 2 1 1 1 2 2 2 1 1 2 3 5 6 5 10 8 10 16 18 15 1 1 4 3 4 4 1 4 3 4 1 9 6 2 3 2 6 8 6 6 7 9 8
12 13 12 12 14 4 2 1 2 3 3 2 2 3 3 3 3 3 4 4 5 3 4 9 16 6 6 12 14 14 16 14 6 3 4 4 1 3 2 2 4 7 7 6 3 9 3 5 11 11 11 11 11 13
12 12 11 10 9 3 3 1 1 3 3 3 4 4 4 2 4 2 2 3 5 4 3 5 5 5 7 1 12 15 11 7 5 4 4 4 3 1 4 3 2 10 9 3 4 9 5 8 12 14 12 13 11 13
10 10 10 9 6 2 3 3 2 2 3 5 4 6 5 2 2 3 2 2 5 2 4 5 5 4 3 3 3 5 10 4 4 4 5 3 1 1 3 4 5 12 7 7 5 12 5 8 8 12 11 13 12 11
10 10 9 8 2 2 2 4 4 3 3 6 6 6 5 5 6 4 3 12 6 3 3 4 5 4 7 3 3 5 6 4 5 4 3 3 1 4 6 5 2 6 7 7 9 5 2 9 10 11 13 14 14 13
10 11 8 3 3 1 4 6 4 3 5 6 8 6 1 2 2 1 4 5 5 2 3 3 3 3 6 3 2 3 5 5 4 5 3 3 3 6 3 4 8 10 11 11 9 5 5 8 11 12 12 12 12 12
9 9 9 4 6 4 2 4 6 5 7 7 2 2 2 3 5 3 3 2 3 3 3 4 2 3 2 2 4 3 4 4 5 5 3 4 3 4 3 6 6 8 5 13 15 7 5 6 10 13 14 13 12 13
9 7 7 5 5 5 6 3 6 5 3 1 2 1 3 4 2 1 2 3 3 3 4 4 5 3 1 3 3 2 1 2 5 4 5 6 4 6 4 5 4 5 6 9 1 9 12 8 11 11 11 11 10 10
8 5 4 3 3 4 4 3 3 1 1 2 3 3 2 2 1 3 3 3 4 3 3 3 4 5 3 4 4 1 3 1 2 1 4 4 3 5 5 8 7 4 8 8 6 1 3 7 7 9 8 9 11 10
5 5 5 6 5 3 3 3 4 6 5 1 2 3 2 1 2 4 3 1 2 3 1 1 2 2 2 3 3 4 4 3 3 3 3 1 2 3 5 6 10 7 7 8 6 7 4 4 4 6 8 7 7 9
5 6 7 6 6 5 3 5 3 2 1 2 2 2 4 4 5 3 2 2 2 1 1 3 3 3 3 4 3 3 2 4 3 4 2 2 6 8 6 4 5 4 7 10 9 5 6 5 5 6 7 5 8 10
7 6 2 5 6 4 4 5 3 0 1 2 3 4 5 4 3 3 3 4 2 1 2 2 4 1 1 2 2 2 1 3 3 2 2 1 6 6 6 6 5 2 1 3 6 8 7 7 7 7 6 6 8 8
1 3 3 3 4 7 6 6 1 0 2 3 4 4 3 3 3 1 3 3 1 2 2 2 2 0 2 0 3 4 4 4 1 2 1 0 2 4 5 7 7 6 7 6 4 3 4 4 4 4 4 6 7 9
1 1 3 4 7 8 7 1 2 4 3 3 4 5 6 5 5 4 2 2 0 2 2 1 2 2 1 2 3 3 2 2 1 3 3 3 3 3 4 6 7 7 7 7 6 6 4 2 3 3 3 3 5 8
1 4 2 11 7 5 2 2 3 3 6 5 4 1 3 4 4 4 3 3 2 1 2 1 3 3 1 3 3 3 1 2 0 3 2 3 2 3 4 4 4 4 6 6 5 4 5 5 4 3 4 3 4 6
1 3 4 7 2 2 3 3 3 3 5 3 4 4 4 4 5 6 6 4 3 1 3 2 3 2 4 4 3 3 2 2 1 1 2 1 3 4 4 3 4 6 7 7 8 6 5 5 4 4 4 3 4 4
3 2 2 4 4 2 3 3 2 3 4 1 3 3 3 3 2 3 3 2 2 2 3 4 3 2 2 1 2 2 1 1 2 2 1 1 2 2 3 4 3 4 3 4 4 3 5 5 3 5 5 5 5 6
2 1 4 3 2 2 2 2 3 3 3 4 2 2 3 2 3 3 2 2 3 3 4 5 5 4 3 2 1 1 2 3 1 0 1 2 1 1 1 0 1 1 2 3 4 4 4 5 6 6 7 7 6 5
0 4 1 2 2 2 3 3 4 3 3 3 3 2 3 2 2 2 2 3 3 3 3 3 3 5 6 5 4 5 3 3 2 1 1 2 2 2 1 2 2 2 1 2 3 5 6 5 6 7 7 7 5 4
2 2 1 2 2 2 4 1 4 3 3 2 2 3 2 2 1 1 2 2 3 2 2 3 5 5 7 6 4 4 4 4 4 3 1 2 2 2 2 2 1 2 3 2 3 4 5 6 5 6 5 3 0 3
1 1 2 2 4 3 3 3 3 3 2 2 2 3 3 2 1 1 2 3 3 2 2 5 4 3 2 3 4 5 5 3 3 2 2 2 3 1 1 2 1 2 2 4 4 5 6 6 6 5 4 2 3 4
1 1 1 3 2 3 4 3 3 1 3 3 3 3 2 0 1 2 2 2 3 2 3 3 1 2 2 1 2 2 2 3 3 4 2 3 2 1 1 0 1 1 2 3 4 6 6 6 5 4 3 2 3 4
1 2 4 2 1 3 2 3 3 3 3 3 5 2 2 2 1 2 2 2 2 2 3 4 4 2 2 2 2 2 2 1 1 2 0 1 2 1 1 1 1 2 2 3 4 6 6 5 5 4 4 3 2 4
2 3 2 2 3 3 4 3 2 3 3 3 2 3 2 3 3 2 2 1 2 2 3 3 3 2 3 2 3 3 3 3 3 4 4 5 3 2 2 3 5 3 2 5 5 5 6 6 7 7 8 8 7 4
2 2 3 1 3 2 4 4 2 2 2 3 3 2 2 2 2 3 2 2 4 3 2 2 2 2 2 2 3 4 5 6 8 8 8 8 5 4 6 5 4 3 4 5 6 6 7 6 7 7 10 13 12 12
3 2 2 4 4 3 2 3 2 3 1 1 3 2 3 1 3 2 1 1 2 3 1 3 4 2 3 3 4 3 3 1 2 6 10 5 4 5 3 4 4 5 4 6 8 8 9 9 10 11 11 9 10 12
3 4 3 3 3 3 3 4 2 1 1 1 2 2 2 3 2 3 3 2 1 1 1 0 2 2 5 6 7 7 5 2 2 5 7 7 7 4 3 3 3 3 3 4 5 5 4 7 7 7 9 9 10 9
1 3 3 3 3 1 1 2 2 1 1 2 2 2 3 4 3 1 2 2 1 2 3 3 3 2 3 6 7 8 8 6 7 8 7 6 5 3 2 1 2 2 2 3 3 4 5 5 5 6 7 7 6 5
3 5 3 2 2 1 2 1 2 2 2 2 1 1 2 2 1 2 2 1 3 6 4 4 4 4 3 4 4 6 6 6 6 6 6 5 4 3 2 1 1 2 3 3 2 3 3 3 3 2 3 3 2 1
2 1 1 2 2 2 1 2 2 1 1 0 2 2 1 2 3 2 1 1 2 4 5 5 5 5 6 5 5 5 5 5 4 4 2 2 1 1 1 1 1 1 3 1 2 3 5 7 8 10 10 10 10 11
Wind_Direction
303 305 308 310 310 307 308 300 299 298 323 151 137 146 190 152 129 214 306 203 258 256 275 247 245 249 246 255 267 345 320 135 288 242 210 207 176 178 142 138 178 180 172 178 151 217 279 164 141 229 36 22 308 211
303 305 307 309 311 314 318 315 356 30 64 99 120 125 89 36 99 129 300 117 191 244 279 300 273 262 250 253 273 203 282 328 283 270 240 260 163 164 152 181 110 198 223 186 210 193 96 184 232 173 304 305 119 148
304 305 308 310 310 311 329 357 30 48 67 93 115 279 263 241 268 151 306 318 228 273 275 258 243 255 238 231 215 236 242 210 231 3 300 289 250 156 147 197 138 201 169 205 181 169 216 208 205 235 209 156 131 151
303 305 309 309 313 295 320 8 14 22 34 7 331 285 297 306 288 190 209 168 267 291 280 282 287 257 248 221 208 214 229 115 103 314 276 269 269 258 180 121 193 102 157 162 206 223 197 202 205 179 145 135 145 141
305 304 304 309 313 263 257 332 6 360 359 356 337 313 297 293 311 277 251 223 238 269 294 292 298 274 272 235 213 198 217 230 246 270 253 251 299 211 56 140 176 191 161 187 197 170 141 150 179 163 152 157 151 143
307 303 303 307 306 245 238 252 348 346 327 325 334 322 310 330 3 285 261 159 198 184 269 296 327 292 312 213 206 214 214 199 192 217 248 260 237 313 204 179 218 189 193 179 124 156 103 139 164 168 158 157 155 150
304 308 305 309 300 261 241 248 259 303 320 302 297 299 300 288 204 232 331 64 119 140 252 288 290 286 356 132 111 155 173 170 183 227 234 280 306 66 273 194 181 194 189 172 119 133 129 175 169 176 149 153 160 160
307 307 298 305 328 24 2 323 289 263 294 310 305 297 291 278 271 274 233 222 194 261 266 273 282 294 4 351 180 168 160 167 196 250 227 221 193 73 248 227 173 168 166 179 187 199 313 141 129 149 142 148 156 165
305 310 320 225 167 297 3 351 323 305 303 307 303 303 270 195 225 240 328 139 179 266 274 248 291 317 326 283 284 183 181 176 167 225 238 168 177 214 223 214 188 178 182 181 165 172 154 155 155 157 158 164 169 174
304 306 311 260 198 214 280 316 316 306 312 305 282 228 222 205 227 146 207 194 170 206 229 253 258 250 322 287 278 222 186 188 179 203 156 225 268 275 282 263 261 196 156 142 136 152 146 153 172 176 186 184 191 184
301 298 302 256 229 235 243 290 297 319 286 231 238 242 337 317 208 225 249 217 166 228 210 237 231 233 172 243 287 292 312 212 189 151 204 193 218 237 217 287 265 177 181 208 39 185 189 183 179 187 197 199 193 191
293 288 310 309 254 260 217 200 287 335 293 314 297 294 278 228 187 260 242 175 212 254 196 210 204 213 203 244 248 174 310 277 156 342 197 207 241 247 310 298 302 234 203 212 210 186 222 213 183 200 211 202 200 193
279 290 286 275 268 247 237 213 258 258 304 236 222 241 218 142 243 224 242 175 294 209 236 308 317 214 161 227 272 280 332 30 316 221 206 260 344 347 310 273 267 223 214 232 206 187 161 161 187 198 211 213 200 189
278 284 273 265 251 241 228 183 230 159 285 261 251 270 226 201 242 216 228 272 281 276 285 258 250 234 159 194 209 343 360 262 260 184 103 23 351 335 320 270 248 249 217 216 221 204 168 195 205 207 226 202 195 199
273 261 273 272 218 192 166 164 166 134 283 256 236 239 224 256 281 289 294 286 259 250 262 253 238 239 147 261 216 200 60 309 292 52 19 348 325 334 10 37 42 47 198 201 197 199 202 198 205 217 212 205 209 199
261 276 231 258 205 174 149 132 116 218 244 238 234 268 243 270 270 272 287 274 235 241 177 254 279 233 159 178 256 224 198 223 152 121 137 285 29 1 12 34 39 46 70 82 91 133 151 171 176 192 189 207 213 204
277 239 326 143 167 150 141 113 193 226 264 243 237 238 264 279 264 267 253 245 208 298 280 182 282 158 305 282 253 243 269 65 103 63 26 315 272 37 18 37 32 29 45 51 56 51 66 82 172 183 220 203 215 217
42 320 156 141 129 132 162 226 249 238 244 239 246 241 211 243 264 267 248 188 213 250 282 323 291 217 121 259 230 264 263 88 156 112 186 265 302 3 1 19 36 29 42 46 43 54 43 24 353 353 345 318 274 247
70 356 127 157 151 182 187 210 223 263 250 263 255 249 249 256 251 258 269 278 260 288 283 258 263 213 196 214 272 308 41 10 76 164 250 353 12 353 346 360 20 33 29 24 21 23 13 357 334 334 317 285 262 263
294 276 246 214 212 272 238 184 202 258 267 293 246 245 244 254 307 267 266 217 197 200 221 228 232 228 240 310 193 224 139 203 280 74 52 55 38 352 345 346 5 8 19 19 33 23 1 358 6 349 335 311 283 266
340 127 148 172 205 242 278 286 245 232 276 263 289 277 271 253 247 240 238 156 201 223 238 227 242 248 209 234 225 245 179 184 187 278 105 95 130 250 251 34 326 341 359 7 348 0 351 352 341 334 324 320 309 282
76 180 131 188 257 214 254 225 269 298 265 276 279 249 266 269 264 233 142 209 231 240 227 243 251 258 258 249 240 202 196 183 218 202 168 166 191 215 234 335 315 286 277 345 337 340 332 335 334 325 322 329 328 318
295 213 224 184 242 231 267 215 254 225 262 280 274 256 235 250 210 119 254 249 264 249 249 272 280 275 259 267 253 238 219 241 272 291 258 230 238 237 247 273 259 292 308 18 342 314 312 322 318 319 325 334 265 129
303 241 256 220 201 269 280 246 227 265 266 285 266 279 271 252 116 93 326 281 257 336 293 297 281 284 235 230 235 240 239 228 254 260 235 261 287 346 322 348 330 302 315 330 319 312 316 315 308 302 306 279 238 206
255 265 137 282 236 253 250 242 229 357 267 233 255 252 245 219 236 216 242 307 327 316 326 326 298 243 270 286 283 270 194 218 230 248 170 214 213 179 192 353 21 11 11 330 333 327 327 319 306 300 292 226 192 167
266 200 184 257 190 230 272 295 321 269 260 250 230 223 274 244 273 350 356 326 308 310 335 346 350 355 40 359 334 5 30 352 229 228 314 267 263 223 200 147 123 94 26 348 341 344 348 351 356 8 45 83 119 178
258 266 226 232 282 275 272 255 261 262 259 277 358 317 328 2 36 330 310 272 283 300 319 344 17 42 69 46 36 25 41 69 51 67 92 79 67 52 59 101 86 68 37 30 44 43 49 45 47 54 68 58 45 42
266 247 253 355 282 246 285 307 273 274 309 3 315 358 330 356 351 271 244 306 292 316 325 353 19 39 62 80 85 77 78 90 92 96 92 79 51 62 73 75 69 57 70 48 65 64 61 59 56 68 75 70 62 52
241 220 223 257 250 248 237 234 267 258 308 348 322 334 305 175 251 247 264 254 270 293 345 85 74 73 74 83 76 80 127 189 64 123 101 90 91 65 46 62 61 62 73 90 46 54 57 66 88 92 92 90 90 91
240 188 232 244 240 235 235 195 251 350 206 243 246 273 265 228 244 261 282 305 354 99 118 76 69 62 61 51 62 72 65 58 56 119 119 108 104 112 98 68 62 66 82 114 114 115 125 119 123 113 106 110 116 118
197 195 243 238 266 247 286 314 291 261 240 188 228 291 307 321 312 244 326 9 34 122 115 99 86 55 78 77 64 69 69 55 68 86 101 112 125 129 127 101 65 58 67 105 127 127 139 139 132 138 147 153 163 193
204 210 247 273 279 317 295 303 283 311 328 331 296 236 263 247 56 48 46 343 69 75 66 81 84 77 73 86 77 80 81 99 96 103 114 118 122 125 126 100 75 41 54 87 93 88 99 101 106 97 122 150 168 222
210 334 293 294 276 309 287 275 244 273 233 9 355 349 328 341 44 46 77 323 28 80 88 88 85 82 86 90 96 103 91 93 82 60 78 58 38 345 272 217 211 272 330 355 36 89 94 89 82 79 73 71 70 74